Regional Weather Roundup
Issued by NWS Sioux Falls, SD

Home | Current Version | Previous Version | Text Only | Print | Product List | Glossary On
Versions: 1 2 3 4 5 6 7 8 9 10 11 12 13 14 15 16 17 18 19 20 21 22 23 24 25 26 27 28 29 30 31 32 33 34 35 36 37 38 39 40 41 42 43 44 45 46 47 48 49 50
000
ASUS43 KFSD 060202
RWRFSD

WEATHER ROUNDUP FOR SE SOUTH DAKOTA/SW MINNESOTA/NW IOWA
NATIONAL WEATHER SERVICE SIOUX FALLS SD
900 PM CDT SUN JUL 05 2015

NOTE: "FAIR" INDICATES FEW OR NO CLOUDS BELOW 12,000 FEET WITH NO
SIGNIFICANT WEATHER AND OR OBSTRUCTIONS TO VISIBILITY.


SDZ038>040-050-052>070-060300-
SOUTHEAST SOUTH DAKOTA

CITY           SKY/WX    TMP DP  RH WIND       PRES   REMARKS
BROOKINGS      PTCLDY    81  72  74 S12       29.77R
CHAMBERLAIN    NOT AVBL
HURON          MOCLDY    83  74  74 VRB7      29.74R
MADISON        FAIR      77  77 100 S9        29.77R
MITCHELL       PTCLDY    83  75  77 S8        29.71R
SIOUX FALLS    CLOUDY    82  73  74 S13       29.75F
WINNER         TSTM      69  65  86 W36G52    29.73R FOG
YANKTON        MOCLDY    81  75  83 E7        29.72S
$$

MNZ071-072-080-081-089-090-097-098-060300-
SOUTHWEST MINNESOTA

CITY           SKY/WX    TMP DP  RH WIND       PRES   REMARKS
FAIRMONT       PTCLDY    79  66  65 S13       29.80F
JACKSON        PTCLDY    81  68  65 S10       29.81F
MARSHALL       PTCLDY    82  70  65 S14       29.73S
PIPESTONE      PTCLDY    79  72  78 S8        29.78R
REDWOOD FALLS  PTCLDY    83  71  67 S12       29.76S
TRACY          PTCLDY    83  71  66 S14       29.77R
WINDOM         MOCLDY    82  68  61 S10G20    29.79F
WORTHINGTON    CLOUDY    81  68  65 S14G20    29.79F
$$

IAZ001>003-012>014-020>022-031-032-NEZ013-014-SDZ071-060300-
NORTHWEST IOWA

CITY           SKY/WX    TMP DP  RH WIND       PRES   REMARKS
DENISON        PTCLDY    81  72  74 MISG      29.79F
ESTHERVILLE    PTCLDY    79  69  71 S16G23    29.80F
SIOUX CITY     MOCLDY    84  73  69 SE15      29.74F
SPENCER        CLEAR     81  68  64 S14       29.79F
$$

ABBREVIATIONS USED IN REMARKS
   TC - TEMPERATURE IN CELSIUS
  WCI - WIND CHILL INDEX
   HX - HEAT INDEX
  VSB - VISIBILITY




USA.gov is the U.S. government's official web portal to all federal, state and local government web resources and services.